Back to catalog

STARLINK-31650

AliveCommunicationsVLEO
NORAD 59512·PAYLOAD·🇺🇸 United States

Launched Apr 17, 2024 from Cape Canaveral Space Force Station

Loading…

Next Passes (next 24 hours)

TLE

FreshSource: CelesTrak SupGP

Epoch: Sep 14, 2026, 22:37 UTC

1 59512C 24073B   26257.94284722 -.00017470  00000+0 -63275-3 0  2571
2 59512  43.0026 329.3180 0001478 269.0606 258.4075 15.27588396    10

Track STARLINK-31650 in real time with AllMySat

Download on the App Store